EA1DB-1 Weather Reports


Display with metric or nautical units.
time (UTC)temp
F
wind
direction
speed
MPH
gust
MPH
rain 1hr
in
rain 24hr
in
rain mn
in
humidity
%
barometer
mb
20260507004613 55 0.0 1.0 0.00 0.00 0.00 68 1007.3
20260507003637 55 0.0 0.0 0.00 0.00 0.00 68 1007.3
20260507002613 56 112 1.0 2.0 0.00 0.00 0.00 68 1007.5
20260507001637 56 0.0 1.0 0.00 0.00 0.00 68 1007.5
20260507000613 56 135 0.0 1.0 0.00 0.00 0.00 67 1007.6
20260506235658 56 0.0 1.0 0.00 0.00 0.00 67 1007.7
20260506234614 56 135 0.0 3.0 0.00 0.00 0.00 67 1007.7
20260506233638 56 0.0 0.0 0.00 0.00 0.00 67 1007.8
20260506232634 57 0.0 0.0 0.00 0.00 0.00 67 1007.9
20260506231637 57 0.0 1.0 0.00 0.00 0.00 65 1007.9
20260506230633 57 0.0 0.0 0.00 0.00 0.00 65 1008.1
20260506225637 57 0.0 0.0 0.00 0.00 0.00 65 1008.1
20260506224613 57 0.0 0.0 0.00 0.00 0.00 65 1008.1
20260506223657 58 135 0.0 3.0 0.00 0.00 0.00 65 1008.2
20260506222613 58 0.0 1.0 0.00 0.00 0.00 65 1008.2
20260506221637 58 0.0 0.0 0.00 0.00 0.00 65 1008.1
20260506220615 58 0.0 0.0 0.00 0.00 0.00 65 1008.1
20260506215637 58 0.0 0.0 0.00 0.00 0.00 65 1008.4
20260506214614 58 90 0.0 3.0 0.00 0.00 0.00 65 1008.4
20260506213638 59 0.0 1.0 0.00 0.00 0.00 64 1008.5
20260506212634 59 0.0 1.0 0.00 0.00 0.00 63 1008.5
20260506211638 59 90 1.0 3.0 0.00 0.00 0.00 63 1008.4
20260506210613 59 0.0 0.0 0.00 0.00 0.00 63 1008.5
20260506205637 60 0.0 1.0 0.00 0.00 0.00 63 1008.5
20260506204613 60 0.0 0.0 0.00 0.00 0.00 63 1008.5
20260506203638 60 0.0 1.0 0.00 0.00 0.00 63 1008.5
20260506202613 60 135 0.0 2.0 0.00 0.00 0.00 62 1008.3
20260506201637 60 90 0.0 3.0 0.00 0.00 0.00 62 1008.3
20260506200654 60 135 0.0 2.0 0.00 0.00 0.00 60 1008.2
20260506195638 60 0.0 1.0 0.00 0.00 0.00 58 1008.2
20260506194614 60 0.0 0.0 0.00 0.00 0.00 58 1008.3
20260506193637 60 0.0 0.0 0.00 0.00 0.00 57 1008.2
20260506192613 61 0.0 0.0 0.00 0.00 0.00 57 1008.4
20260506191637 61 0.0 0.0 0.00 0.00 0.00 57 1008.4
20260506190613 61 0.0 1.0 0.00 0.00 0.00 57 1008.2
20260506185637 61 0.0 0.0 0.00 0.00 0.00 56 1008.3
20260506184614 61 0.0 0.0 0.00 0.00 0.00 55 1008.1
20260506183637 61 0.0 0.0 0.00 0.00 0.00 55 1008.2
20260506182613 62 0.0 0.0 0.00 0.00 0.00 55 1008.2
20260506181638 62 0.0 0.0 0.00 0.00 0.00 55 1008.3
20260506180633 62 0.0 0.0 0.00 0.00 0.00 54 1008.3
20260506175638 63 0.0 1.0 0.00 0.00 0.00 55 1008.2
20260506174634 63 0.0 0.0 0.00 0.00 0.00 55 1008.4
20260506173638 63 0.0 1.0 0.00 0.00 0.00 56 1008.2
20260506172634 64 0.0 2.0 0.00 0.00 0.00 56 1008.2
20260506171658 64 0.0 2.0 0.00 0.00 0.00 56 1008.4
20260506170613 64 135 0.0 2.0 0.00 0.00 0.00 55 1008.4
20260506165637 66 0.0 0.0 0.00 0.00 0.00 55 1008.5
20260506164613 66 90 0.0 2.0 0.00 0.00 0.00 51 1008.5
20260506163637 67 135 0.0 2.0 0.00 0.00 0.00 50 1008.4
20260506162633 67 0.0 1.0 0.00 0.00 0.00 49 1008.4
20260506161637 66 0.0 0.0 0.00 0.00 0.00 50 1008.7
20260506160614 66 0.0 1.0 0.00 0.00 0.00 50 1008.8
20260506155638 66 225 1.0 2.0 0.00 0.00 0.00 50 1008.7
20260506154614 67 157 2.0 3.0 0.00 0.00 0.00 48 1008.8
20260506153622 67 225 0.0 3.0 0.00 0.00 0.00 52 1008.8
20260506152614 65 202 0.0 1.0 0.00 0.00 0.00 52 1009.2
20260506151637 65 225 1.0 3.0 0.00 0.00 0.00 55 1009.3
20260506150618 64 292 1.0 3.0 0.00 0.00 0.00 57 1009.5
20260506145703 62 0.0 0.0 0.00 0.00 0.00 60 1009.6
20260506144614 62 270 0.0 2.0 0.00 0.00 0.00 62 1009.5
20260506143637 62 0.0 0.0 0.00 0.00 0.00 60 1009.8
20260506142613 63 157 1.0 3.0 0.00 0.00 0.00 58 1010.0
20260506141637 63 135 0.0 3.0 0.00 0.00 0.00 58 1010.1
20260506140613 63 0.0 2.0 0.00 0.00 0.00 58 1010.3
20260506135637 64 270 0.0 2.0 0.00 0.00 0.00 59 1010.3
20260506134613 64 225 2.0 3.0 0.00 0.00 0.00 57 1010.4
20260506133637 65 180 0.0 1.0 0.00 0.00 0.00 57 1010.5
20260506132613 65 0.0 1.0 0.00 0.00 0.00 55 1010.3
20260506131637 67 180 1.0 4.0 0.00 0.00 0.00 54 1010.1
20260506130613 67 315 2.0 7.0 0.00 0.00 0.00 54 1010.4
20260506125637 67 0.0 0.0 0.00 0.00 0.00 54 1010.3
20260506124613 66 180 0.0 2.0 0.00 0.00 0.00 54 1010.2
20260506123637 66 225 3.0 6.0 0.00 0.00 0.00 53 1010.4
20260506122613 66 225 0.0 3.0 0.00 0.00 0.00 49 1010.4
20260506121657 66 0.0 1.0 0.00 0.00 0.00 48 1010.6
20260506120613 67 0.0 1.0 0.00 0.00 0.00 48 1010.7
20260506115657 66 0.0 0.0 0.00 0.00 0.00 49 1010.6
20260506114613 66 270 1.0 3.0 0.00 0.00 0.00 48 1010.7
20260506113637 66 0.0 0.0 0.00 0.00 0.00 47 1010.9
20260506112613 66 0.0 1.0 0.00 0.00 0.00 48 1011.0
20260506111657 65 270 0.0 2.0 0.00 0.00 0.00 48 1011.1
20260506110615 65 270 2.0 5.0 0.00 0.00 0.00 50 1011.0
20260506105637 65 270 1.0 3.0 0.00 0.00 0.00 49 1011.1
20260506104613 65 0.0 2.0 0.00 0.00 0.00 52 1011.2
20260506103637 63 0.0 0.0 0.00 0.00 0.00 52 1011.1
20260506102613 64 0.0 0.0 0.00 0.00 0.00 51 1011.3
20260506101637 64 0.0 0.0 0.00 0.00 0.00 51 1011.5
20260506100613 63 0.0 1.0 0.00 0.00 0.00 52 1011.4
20260506095637 63 180 0.0 1.0 0.00 0.00 0.00 52 1011.3
20260506094613 63 225 0.0 2.0 0.00 0.00 0.00 51 1011.4
20260506093637 63 90 0.0 2.0 0.00 0.00 0.00 52 1011.3
20260506092633 62 0.0 0.0 0.00 0.00 0.00 52 1011.4
20260506091637 62 0.0 0.0 0.00 0.00 0.00 54 1011.2
20260506090905 62 0.0 2.0 0.00 0.00 0.00 56 1011.3
20260506085637 62 0.0 0.0 0.00 0.00 0.00 58 1011.3
20260506084613 61 0.0 0.0 0.00 0.00 0.00 60 1011.4
20260506083637 60 0.0 0.0 0.00 0.00 0.00 61 1011.3
20260506082613 60 0.0 1.0 0.00 0.00 0.00 63 1011.3
20260506081637 60 0.0 0.0 0.00 0.00 0.00 64 1011.4
20260506080613 59 0.0 0.0 0.00 0.00 0.00 65 1011.3
20260506072653 56 0.0 1.0 0.00 0.00 0.00 76 1011.4
20260506071637 55 0.0 0.0 0.00 0.00 0.00 77 1011.5
20260506070613 54 0.0 0.0 0.00 0.00 0.00 77 1011.4
20260506061717 53 0.0 0.0 0.00 0.00 0.00 77 1010.9
20260506060613 53 0.0 0.0 0.00 0.00 0.00 77 1011.0
20260506050633 54 0.0 0.0 0.00 0.00 0.00 77 1010.9
20260506044633 54 0.0 0.0 0.00 0.00 0.00 77 1011.0
20260506043636 54 0.0 0.0 0.00 0.00 0.00 77 1011.1
20260506042633 54 0.0 0.0 0.00 0.00 0.00 77 1011.1
20260506041637 54 0.0 0.0 0.00 0.00 0.00 78 1011.2
20260506040633 54 0.0 1.0 0.00 0.00 0.00 78 1011.2
20260506035657 54 90 1.0 3.0 0.00 0.00 0.00 77 1011.1
20260506034613 54 0.0 0.0 0.00 0.00 0.00 76 1011.3
20260506033637 55 0.0 1.0 0.00 0.00 0.00 76 1011.4
20260506032613 55 0.0 1.0 0.00 0.00 0.00 75 1011.4
20260506031637 55 0.0 0.0 0.00 0.00 0.00 75 1011.5
20260506030633 55 0.0 0.0 0.00 0.00 0.00 75 1011.5
20260506025637 55 0.0 0.0 0.00 0.00 0.00 75 1011.6
20260506024613 55 0.0 0.0 0.00 0.00 0.00 75 1011.4
20260506023637 56 0.0 0.0 0.00 0.00 0.00 75 1011.5
20260506022613 56 0.0 0.0 0.00 0.00 0.00 75 1011.7
20260506021637 56 0.0 0.0 0.00 0.00 0.00 75 1011.8
20260506020613 56 0.0 0.0 0.00 0.00 0.00 75 1011.9
20260506015636 56 0.0 0.0 0.00 0.00 0.00 75 1012.0
20260506014633 56 0.0 0.0 0.00 0.00 0.00 76 1012.2
20260506013637 56 0.0 0.0 0.00 0.00 0.00 76 1012.2
20260506012613 56 0.0 0.0 0.00 0.00 0.00 76 1012.2
20260506011637 56 0.0 0.0 0.00 0.00 0.00 76 1012.3
20260506010613 56 0.0 0.0 0.00 0.00 0.00 77 1012.5
20260506005636 56 0.0 0.0 0.00 0.00 0.00 77 1012.5